Location: Be?i?
(36.9044°N, 30.1006°E)
Time: 10:15:46
(UTC+00:00)

Cosmos 2360 Rocket - Pass Details

Date: 05 August 2024
Orbit: 834 x 843 km, 71.0° (Epoch: 14 September)

Event Time Altitude Azimuth Distance (km) Brightness Sun altitude
Exits shadow 22:49:27 27° 61° (ENE) 1,557 3.8 -35.5°
Drops below altitude 10° 22:52:26 10° 39° (NE) 2,465 5.3 -35.3°
Sets 22:55:01 0° 31° (NNE) 3,403 6.3 -35.2°
